Погода в Енисейске

Погода в Енисейске : погода сейчас, прогноз погоды и архив. Всё, что Вы хотите узнать о погоде в Енисейске!

Хотите узнать прогноз погоды в Енисейске? Тогда Вам сюда: Погода в Енисейске

Поиск расширенной информации на нашем сайте:

Другие новости

Новости СМИ2

Главная страница сайта

Новости сайта

03.07.2017

Напоминаем, что на нашем специализированном сайте Метеоцентр.Азия вы можете получить высокодетализированные автоматические прогнозы погоды по пунктам России, СНГ и мира в авиационном формате (включающие направление и скорость ветра, видимость, явления погоды, количество и форму облачности, нижнюю и верхнюю границу облачности).


Погода в Енисейске - сегодня

Время (UTC), дата Ветер
(°,м/с) 
Видим.   Явления Облачность Т
(°С)
Тd
(°С)
f(%) Тe
(°С)
Pmin
(гПа)
dP
(гПа)
Po
(мм)
O2
(г/м3)
Тmin Tmax R s Состояние
почвы
12 22.06.18 260 (З) 20000 м    9/5 2000 м средняя, верхняя 
[Ac trans|Ci sp]
+25.1 +10.7 40 +27  1006.5  -0.1  748  274    +26.2       
15 22.06.18 120 (ЮВ) 20000 м    9/0 средняя, верхняя 
[Ac trans|Ci fib]
+21.4 +14.2 64 +29  1006.6  748  277           
18 22.06.18 100 (В) 20000 м    9/0 средняя, верхняя 
[Ac trans|Ci fib]
+17.3 +13.4 78 +25  1007.2  0.4  748  281           
21 22.06.18 120 (ЮВ) 20000 м    9/6 2000 м средняя, верхняя 
[Ac trans|Ci fib]
+15.4 +12.9 85 +22  1007.5  0.2  748  283           
00 23.06.18 120 (ЮВ) 20000 м    3/0 верхняя 
[Ci fib]
+19 +13.8 72 +27  1007.4  748  279  +15.2        сухая 
03 23.06.18 130 (ЮВ) 20000 м    ясно 
+24.4 +14.9 55 +33  1007.2  748  274           
06 23.06.18 100 (В) 20000 м    ясно 
+28.7 +15.4 44 +38  1006.8  -0.2  748  270           
09 23.06.18 110 (В) 20000 м    ясно 
+29.9 +14 38 +37  1005.9  -0.8  748  269           
12 23.06.18 150 (ЮВ) 20000 м    3/0 верхняя 
[Ci fib]
+29.2 +12.1 35 +33  1005.6  -0.4  747  270    +30.2       
15 23.06.18 110 (В) 20000 м    4/0 средняя, верхняя 
[Ac trans|Ci fib]
+24.7 +13.2 49 +31  1005.8  0.1  747  274           
18 23.06.18 110 (В) 20000 м    4/0 верхняя 
[Ci fib]
+19.7 +14 70 +28  1006.1  0.2  747  278           
21 23.06.18 тихо ()   20000 м    3/0 верхняя 
[Ci fib]
+17 +13.7 81 +24  1006.5  0.2  748  281           
00 24.06.18 090 (В) 20000 м    3/0 верхняя 
[Ci fib]
+20.9 +13.8 64 +28  1007.3  0.9  748  277  +15.5        сухая 
03 24.06.18 150 (ЮВ) 20000 м    ясно 
+26.5 +14.5 48 +34  1006.7  -0.2  748  272           
06 24.06.18 140 (ЮВ) 20000 м    ясно 
+29.6 +13.8 38 +36  1006.3  -0.2  748  269           
09 24.06.18 150 (ЮВ) 20000 м    4/0 верхняя 
[Ci fib]
+30.8 +13.6 35 +37  1005.4  -0.9  747  268           
12 24.06.18 110 (В) 20000 м    3/0 верхняя 
[Ci fib]
+30.2 +14.5 38 +38  1005.8  0.4  747  268    +31.2       
15 24.06.18 140 (ЮВ) 20000 м    3/0 верхняя 
[Ci fib]
+24.3 +16.5 62 +36  1006.2  0.2  748  273           
18 24.06.18 тихо ()   20000 м    4/0 средняя, верхняя 
[Ac trans|Ci fib]
+17.7 +15 84 +26  1007.3  0.8  748  280           
21 24.06.18 140 (ЮВ) 20000 м    4/0 средняя, верхняя 
[Ac trans|Ci fib]
+15.1 +13.3 89 +22  1007.6  0.2  748  283           
00 25.06.18 090 (В) 20000 м    9/0 средняя, верхняя 
[Ac trans|Ci fib]
+19.8 +14.9 73 +30  1008.3  0.9  749  278  +14.6        сухая 
03 25.06.18 130 (ЮВ) 20000 м    9/0 верхняя 
[Ci fib]
+27.5 +15.4 48 +37  1008.6  0.6  749  271           
06 25.06.18 090 (В) 20000 м    9/3 1000 м верхняя 
[Cu hum|Ci fib]
+31 +10.2 28 +32  1008.1  -0.5  749  269           
09 25.06.18 140 (ЮВ) 20000 м    9/1 1000 м верхняя 
[Cu hum|Ci fib]
+31.7 +11.9 30 +35  1007.7  -0.3  749  268           
12 25.06.18 170 (Ю) 20000 м    9/0 верхняя 
[Ci fib]
+31.3 +14.1 35 +38  1007.6  -0.1  749  268    +31.9       
Время (UTC), дата Ветер
(°,м/с) 
Видим.   Явления Облачность Т
(°С)
Тd
(°С)
f(%) Тe
(°С)
Pmin
(гПа)
dP
(гПа)
Po
(мм)
O2
(г/м3)
Тmin Tmax R s Состояние
почвы

Для получения пояснительной информации подведите курсор к названию столбца.

ПОГОДА в Енисейске - архив

Всё, что Вы хотите узнать о погоде в Енисейске - удобно и подробно!

Выберите нужную дату (начиная с 1 января 2015* года) и нажмите кнопку "Найти".
Будут отображены архивные сводки погоды по пункту Енисейск, начиная с указанной даты.


Отображать данные в формате CSV (для использования в таблицах Excel)


Внимание! Наш архив погоды предназначен исключительно для личного некоммерческого использования в познавательных целях. Если Вам необходимы официальные справки о состоянии погоды (для производственных, юридических, коммерческих и т.п. целей), обращайтесь в органы Росгидромета.

*Примечание: данная дата относится к архиву по метеостанциям СССР (Россия, СНГ, Балтия).
Архив по метеостанциям Зарубежной Европы и Азии (кроме Китая) хранится 10 дней, по другим регионам земного шара (Китай, Африка, Америка, Австралия, Океания) - 1 день.

Енисейск - район местоположения метеостанции


Название, широта, долгота, высота метеостанции:
Енисейск 58.4°ш. 92.2°д. 79 м над ур. моря [Российская Федерация]

Дополнительная информация

В oтличие oт бoльшинства пoгoдных сайтoв мы публикуем пoдрoбную метеoинфoрмацию в детальнoм прoфессиoнальнoм фoрмате.

Характеристики температуры и влажнoсти вoздуха измеряются на высoте 2 м в тени вдали oт зданий и деревьев.
Скoрoсть ветра измеряется на высoте 10 м (на урoвне рoста челoвека скoрoсть ветра ниже в 1.5-2 раза). Если метеoстанция нахoдится в гoрoде или в лесу, тo скoрoсть ветра занижена на 2-4 м/с пo сравнению с oткрытым местoм. Скoрoсть ветра над акватoриями крупных рек и oзёр, а также на вершинах хoлмoв на 2-5 м/с выше, чем в oбычных услoвиях.
Атмoсфернoе давление в разных тoчках местнoсти мoжет значительнo oтличаться oт давления на метеoстанции, в зависимoсти oт услoвий рельефа (при пoдъёме на 10 м давление пoнижается примернo на 1 мм рт.ст.).